User: anonymous
Location: Unspecified
(0.0000°N, 0.0000°E)
Time: 09:22:40
(UTC+00:00)
Language:

METEOR-M - Orbit

View from above orbital plane
View from above orbital plane
View from above satellite
View from above satellite

Ground track
Ground track

The orbit data is extracted from the following two-line orbital elements,

1 35865U 09049A   14108.06140133  .00000029  00000-0  32333-4 0  4490
2 35865 098.5554 157.2770 0001448 277.3946 082.7075 14.21918016237799
Epoch (UTC): 18 April 2014 01:28:25
Eccentricity: 0.0001448
inclination: 98.5554°
perigee height: 818 km
apogee height: 820 km
right ascension of ascending node: 157.2770°
argument of perigee: 277.3946°
revolutions per day: 14.21918016
mean anomaly at epoch: 82.7075°
orbit number at epoch: 23779

The dashed part of the orbit path shows where the satellite is in the earth's shadow,  

DLR